Weather History for K11R - January, 2013

Change the Weather History Date:

Wednesday, January 30, 2013

  Actual Average (KCLL) Record (KCLL)
Temperature  
Mean Temperature 48 °F 52 °F  
Max Temperature 60 °F 62 °F 86 °F (1911)
Min Temperature 37 °F 42 °F 12 °F (1949)
Degree Days  
Heating Degree Days 16 13  
Month to date heating degree days 431  
Since 1 July heating degree days 1067  
Cooling Degree Days 0 0  
Month to date cooling degree days 0  
Year to date cooling degree days 0  
Moisture  
Dew Point 28 °F    
Average Humidity 39    
Maximum Humidity 81    
Minimum Humidity 23    
Precipitation  
Precipitation 0.00 in 0.10 in 0.99 in (1964)
Month to date precipitation 3.14  
Year to date precipitation 3.14  
Sea Level Pressure  
Sea Level Pressure 30.04 in    
Wind  
Wind Speed 11 mph (NW)    
Max Wind Speed 29 mph    
Max Gust Speed 36 mph    
Visibility 10 miles    
Events      
T = Trace of Precipitation, MM = Missing Value Source: NWS Daily Summary

Daily Weather History Graph

Daily Weather History Graph

Search for Another Location

Airport or City:

Trip Planner

Search our weather history database for the weather conditions in past years. The results will help you decide how hot, cold, wet, or windy it might be!

Date:

Astronomy

Jan. 30, 2013 Rise Set
Actual Time 7:17 AM CST 6:00 PM CST
Civil Twilight 6:51 AM CST 6:26 PM CST
Nautical Twilight 6:23 AM CST 6:54 PM CST
Astronomical Twilight 5:54 AM CST 7:23 PM CST
Moon 9:38 PM CST (1/30) 9:04 AM CST (1/30)
Length of Visible Light 11h 34m
Length of Day
10h 43m
Waning Gibbous, 87% of the Moon is Illuminated
Jan 30
Waning Gibbous
Feb 3
Last Quarter
Feb 10
New
Feb 17
First Quarter
Feb 25
Full

Hourly Weather History & Observations

Time (CST) Temp. Windchill Dew Point Humidity Pressure Visibility Wind Dir Wind Speed Gust Speed Precip Events Conditions
12:15 AM 60.8 °F - 46.4 °F 59% 29.80 in 10.0 mi NW 9.2 mph - N/A   Overcast
12:35 AM 60.8 °F - 37.4 °F 42% 29.80 in 10.0 mi NW 17.3 mph 21.9 mph N/A   Overcast
12:55 AM 60.8 °F - 37.4 °F 42% 29.81 in 10.0 mi NW 10.4 mph - N/A   Mostly Cloudy
1:15 AM 60.8 °F - 33.8 °F 36% 29.82 in 10.0 mi NW 10.4 mph 17.3 mph N/A   Overcast
1:35 AM 60.8 °F - 32.0 °F 34% 29.82 in 10.0 mi WNW 10.4 mph - N/A   Overcast
1:55 AM 59.0 °F - 32.0 °F 36% 29.83 in 10.0 mi WNW 9.2 mph - N/A   Overcast
2:15 AM 59.0 °F - 28.4 °F 31% 29.83 in 10.0 mi NW 9.2 mph 16.1 mph N/A   Overcast
2:35 AM 57.2 °F - 30.2 °F 36% 29.83 in 10.0 mi WNW 6.9 mph - N/A   Scattered Clouds
2:55 AM 57.2 °F - 32.0 °F 38% 29.83 in 10.0 mi West 3.5 mph - N/A   Mostly Cloudy
3:15 AM 55.4 °F - 37.4 °F 51% 29.84 in 10.0 mi West 4.6 mph - N/A   Overcast
3:35 AM 53.6 °F - 35.6 °F 51% 29.84 in 10.0 mi WSW 4.6 mph - N/A   Scattered Clouds
3:55 AM 53.6 °F - 33.8 °F 47% 29.85 in 10.0 mi West 4.6 mph - N/A   Mostly Cloudy
4:15 AM 53.6 °F - 32.0 °F 44% 29.86 in 10.0 mi West 3.5 mph - N/A   Mostly Cloudy
4:35 AM 53.6 °F - 32.0 °F 44% 29.85 in 10.0 mi West 4.6 mph - N/A   Mostly Cloudy
4:55 AM 53.6 °F - 32.0 °F 44% 29.87 in 10.0 mi West 5.8 mph - N/A   Mostly Cloudy
5:15 AM 53.6 °F - 28.4 °F 38% 29.88 in 10.0 mi West 4.6 mph - N/A   Mostly Cloudy
5:35 AM 53.6 °F - 28.4 °F 38% 29.88 in 10.0 mi West 5.8 mph - N/A   Mostly Cloudy
5:55 AM 53.6 °F - 28.4 °F 38% 29.89 in 10.0 mi West 6.9 mph - N/A   Mostly Cloudy
6:15 AM 53.6 °F - 26.6 °F 35% 29.90 in 10.0 mi West 8.1 mph - N/A   Scattered Clouds
6:35 AM 53.6 °F - 24.8 °F 33% 29.91 in 10.0 mi West 12.7 mph - N/A   Clear
6:55 AM 53.6 °F - 24.8 °F 33% 29.92 in 10.0 mi West 8.1 mph - N/A   Clear
7:15 AM 51.8 °F - 26.6 °F 38% 29.94 in 10.0 mi West 8.1 mph - N/A   Clear
7:35 AM 51.8 °F - 26.6 °F 38% 29.95 in 10.0 mi West 11.5 mph 17.3 mph N/A   Clear
7:55 AM 53.6 °F - 24.8 °F 33% 29.97 in 10.0 mi WNW 10.4 mph 17.3 mph N/A   Clear
8:15 AM 53.6 °F - 24.8 °F 33% 29.98 in 10.0 mi WNW 21.9 mph 26.5 mph N/A   Clear
8:35 AM 53.6 °F - 24.8 °F 33% 30.00 in 10.0 mi WNW 23.0 mph 28.8 mph N/A   Clear
8:55 AM 53.6 °F - 26.6 °F 35% 30.01 in 10.0 mi WNW 20.7 mph 34.5 mph N/A   Clear
9:15 AM 53.6 °F - 28.4 °F 38% 30.03 in 10.0 mi NW 23.0 mph 32.2 mph N/A   Clear
9:35 AM 53.6 °F - 30.2 °F 41% 30.05 in 10.0 mi NW 24.2 mph 32.2 mph N/A   Clear
9:55 AM 53.6 °F - 32.0 °F 44% 30.06 in 10.0 mi NW 23.0 mph 31.1 mph N/A   Clear
10:15 AM 55.4 °F - 32.0 °F 41% 30.08 in 10.0 mi NW 25.3 mph 33.4 mph N/A   Scattered Clouds
10:35 AM 55.4 °F - 32.0 °F 41% 30.09 in 10.0 mi NW 24.2 mph 35.7 mph N/A   Mostly Cloudy
10:55 AM 55.4 °F - 32.0 °F 41% 30.10 in 10.0 mi WNW 23.0 mph 31.1 mph N/A   Scattered Clouds
11:15 AM 55.4 °F - 30.2 °F 38% 30.10 in 10.0 mi NNW 20.7 mph 33.4 mph N/A   Scattered Clouds
11:35 AM 55.4 °F - 30.2 °F 38% 30.10 in 10.0 mi WNW 16.1 mph 26.5 mph N/A   Scattered Clouds
11:55 AM 57.2 °F - 28.4 °F 33% 30.10 in 10.0 mi NW 23.0 mph 34.5 mph N/A   Scattered Clouds
12:15 PM 59.0 °F - 28.4 °F 31% 30.10 in 10.0 mi NW 28.8 mph 33.4 mph N/A   Clear
12:35 PM 57.2 °F - 28.4 °F 33% 30.09 in 10.0 mi NW 24.2 mph 28.8 mph N/A   Clear
12:55 PM 59.0 °F - 28.4 °F 31% 30.09 in 10.0 mi NW 21.9 mph 33.4 mph N/A   Clear
1:15 PM 59.0 °F - 26.6 °F 29% 30.08 in 10.0 mi NNW 21.9 mph 28.8 mph N/A   Clear
1:35 PM 59.0 °F - 26.6 °F 29% 30.08 in 10.0 mi NW 25.3 mph 29.9 mph N/A   Clear
1:55 PM 59.0 °F - 26.6 °F 29% 30.08 in 10.0 mi NW 20.7 mph 31.1 mph N/A   Clear
2:15 PM 59.0 °F - 26.6 °F 29% 30.08 in 10.0 mi NW 21.9 mph 28.8 mph N/A   Clear
2:35 PM 59.0 °F - 23.0 °F 25% 30.09 in 10.0 mi NW 20.7 mph 32.2 mph N/A   Clear
2:55 PM 59.0 °F - 24.8 °F 27% 30.10 in 10.0 mi NNW 15.0 mph 26.5 mph N/A   Clear
3:15 PM 60.8 °F - 23.0 °F 23% 30.09 in 10.0 mi NW 23.0 mph 27.6 mph N/A   Clear
3:35 PM 59.0 °F - 23.0 °F 25% 30.10 in 10.0 mi NNW 16.1 mph 25.3 mph N/A   Clear
3:55 PM 59.0 °F - 23.0 °F 25% 30.10 in 10.0 mi NNW 15.0 mph 26.5 mph N/A   Clear
4:15 PM 59.0 °F - 23.0 °F 25% 30.12 in 10.0 mi NW 17.3 mph 25.3 mph N/A   Clear
4:35 PM 59.0 °F - 21.2 °F 23% 30.12 in 10.0 mi NW 17.3 mph 26.5 mph N/A   Clear
4:55 PM 59.0 °F - 21.2 °F 23% 30.11 in 10.0 mi NW 15.0 mph 24.2 mph N/A   Clear
5:15 PM 59.0 °F - 21.2 °F 23% 30.11 in 10.0 mi NNW 12.7 mph - N/A   Clear
5:35 PM 57.2 °F - 19.4 °F 23% 30.12 in 10.0 mi NW 15.0 mph 21.9 mph N/A   Clear
5:55 PM 55.4 °F - 23.0 °F 29% 30.13 in 10.0 mi NNW 6.9 mph - N/A   Clear
6:15 PM 53.6 °F - 23.0 °F 30% 30.14 in 10.0 mi NW 6.9 mph - N/A   Clear
6:35 PM 51.8 °F - 23.0 °F 33% 30.15 in 10.0 mi NW 4.6 mph - N/A   Clear
6:55 PM 51.8 °F - 23.0 °F 33% 30.15 in 10.0 mi North 5.8 mph - N/A   Clear
7:15 PM 51.8 °F - 24.8 °F 35% 30.15 in 10.0 mi NNW 6.9 mph - N/A   Clear
7:35 PM 50.0 °F - 24.8 °F 37% 30.17 in 10.0 mi North 5.8 mph - N/A   Clear
7:55 PM 50.0 °F - 23.0 °F 35% 30.18 in 10.0 mi NNW 4.6 mph - N/A   Clear
8:15 PM 50.0 °F - 24.8 °F 37% 30.19 in 10.0 mi WNW 3.5 mph - N/A   Clear
8:35 PM 48.2 °F - 23.0 °F 37% 30.20 in 10.0 mi WNW 3.5 mph - N/A   Clear
8:55 PM 48.2 °F - 23.0 °F 37% 30.21 in 10.0 mi West 3.5 mph - N/A   Clear
9:15 PM 46.4 °F - 26.6 °F 46% 30.21 in 10.0 mi Calm Calm - N/A   Clear
9:35 PM 42.8 °F 41.1 °F 28.4 °F 57% 30.21 in 10.0 mi WNW 3.5 mph - N/A   Clear
9:55 PM 42.8 °F - 28.4 °F 57% 30.22 in 10.0 mi Calm Calm - N/A   Clear
10:15 PM 41.0 °F - 30.2 °F 65% 30.22 in 10.0 mi Calm Calm - N/A   Clear
10:35 PM 42.8 °F - 30.2 °F 61% 30.23 in 10.0 mi Calm Calm - N/A   Clear
10:55 PM 39.2 °F - 32.0 °F 75% 30.23 in 10.0 mi Calm Calm - N/A   Clear
11:15 PM 37.4 °F - 32.0 °F 81% 30.23 in 10.0 mi Calm Calm - N/A   Clear
11:35 PM 39.2 °F - 32.0 °F 75% 30.23 in 10.0 mi Calm Calm - N/A   Clear
11:55 PM 37.4 °F - 32.0 °F 81% 30.24 in 10.0 mi Calm Calm - N/A   Clear